Location: México DF
(19.4326°N, 99.1332°W)
Time: 20:03:14
(UTC+00:00)

ISS - Pass Details

Date: 10 September 2024
Orbit: 413 x 423 km, 51.6° (Epoch: 19 September)

Event Time Altitude Azimuth Distance (km) Brightness Sun altitude
Exits shadow 11:21:05 31° 287° (WNW) 772 -2.9 -15.3°
Maximum altitude 11:22:18 46° 233° (SW) 574 -3.5 -15.1°
Drops below altitude 10° 11:25:33 10° 159° (SSE) 1,503 -0.8 -14.3°
Sets 11:27:42 0° 153° (SSE) 2,364 0.3 -13.8°
